AKDT,Max TemperatureF,Mean TemperatureF,Min TemperatureF,Max Dew PointF,MeanDew PointF,Min DewpointF,Max Humidity, Mean Humidity, Min Humidity, Max Sea Level PressureIn, Mean Sea Level PressureIn, Min Sea Level PressureIn, Max VisibilityMiles, Mean VisibilityMiles, Min VisibilityMiles, Max Wind SpeedMPH, Mean Wind SpeedMPH, Max Gust SpeedMPH,PrecipitationIn, CloudCover, Events, WindDirDegrees
2012-8-1,59,56,54,56,52,49,97,87,78,29.83,29.74,29.63,10,10,10,10,4,,0.01,8,Rain,335
2012-8-2,59,55,51,54,49,44,96,83,60,29.94,29.77,29.63,10,9,3,14,5,23,0.00,8,Rain,188
2012-8-3,64,58,51,49,47,43,92,72,50,30.13,30.08,29.96,10,10,10,12,4,,0.01,3,Rain,255
2012-8-4,60,56,54,52,48,45,87,76,67,30.13,30.04,29.93,10,10,10,10,2,,0.02,8,Rain,9
2012-8-5,63,57,51,52,49,42,100,79,46,29.93,29.89,29.87,10,10,10,8,2,,0.00,7,Rain,335
2012-8-6,68,57,48,52,47,44,86,70,48,29.90,29.85,29.83,10,10,10,6,2,,0.00,6,Rain,30
2012-8-7,69,58,46,49,45,40,90,61,37,29.95,29.92,29.88,10,10,10,15,3,20,0.00,2,,218
2012-8-8,66,58,51,54,50,48,89,76,54,29.92,29.87,29.83,10,10,10,6,3,,0.00,7,,98
2012-8-9,73,63,54,55,51,47,90,65,49,30.04,29.95,29.86,10,10,10,15,3,22,0.00,4,,210
2012-8-10,66,62,57,53,51,47,84,69,54,30.12,30.09,30.06,10,10,10,10,4,,0.00,7,,303
2012-8-11,68,62,55,53,51,49,83,70,56,30.11,30.08,30.04,10,10,10,7,4,,0.00,4,,268
2012-8-12,70,62,55,54,51,48,87,70,47,30.06,30.01,29.94,10,10,10,7,4,,0.00,5,Rain,242
2012-8-13,70,64,57,54,51,48,84,69,47,30.10,30.07,30.01,10,10,10,12,6,,0.00,4,,276
2012-8-14,71,61,51,54,51,45,90,72,44,30.14,30.09,30.03,10,10,10,6,2,,0.00,4,,31
2012-8-15,69,60,52,52,48,44,83,61,47,30.11,30.07,30.04,10,10,10,12,3,,0.00,7,Rain,130
2012-8-16,66,59,55,55,51,45,100,78,52,30.06,30.03,29.97,10,10,2,13,4,18,0.04,7,Rain,244
2012-8-17,66,60,52,50,48,44,83,69,50,29.97,29.90,29.84,10,10,10,9,2,,0.00,6,Rain,295
2012-8-18,63,54,46,51,47,43,90,75,55,29.89,29.87,29.84,10,10,10,9,3,,0.09,5,Rain,34
2012-8-19,66,58,53,52,48,40,96,71,43,29.87,29.85,29.82,10,10,10,7,3,18,0.04,8,Rain,348
2012-8-20,59,54,51,54,51,48,97,89,75,29.96,29.86,29.80,10,10,4,6,3,,0.25,8,Rain,303
2012-8-21,64,56,48,54,50,46,100,83,56,30.07,30.03,29.97,10,10,7,9,2,,0.00,6,Rain,285
2012-8-22,66,57,48,53,49,46,90,73,54,30.03,29.91,29.75,10,10,10,7,3,,0.00,3,,298
2012-8-23,60,55,51,52,50,49,96,84,69,29.85,29.73,29.70,10,9,3,14,4,,0.43,7,Rain,351
2012-8-24,63,54,46,51,47,43,93,76,56,29.96,29.92,29.86,10,10,8,15,4,22,0.00,6,Rain,169
2012-8-25,63,56,51,51,48,46,89,73,60,30.05,30.02,29.97,10,10,10,6,3,,0.00,3,,251
2012-8-26,69,58,48,58,52,47,94,82,56,30.02,29.84,29.63,10,9,4,15,4,29,0.13,8,Rain,159
2012-8-27,66,60,54,57,46,32,100,65,29,29.96,29.75,29.63,10,10,2,18,9,25,0.09,5,Rain,266
2012-8-28,66,56,46,44,39,32,80,57,30,30.08,30.05,29.97,10,10,10,9,5,,0.00,1,,348
2012-8-29,66,54,43,48,41,37,82,62,43,30.08,30.02,29.94,10,10,10,6,2,,0.00,4,,317
2012-8-30,61,56,51,54,49,43,93,77,55,29.93,29.81,29.74,10,10,6,9,2,,0.27,8,Rain,315
2012-8-31,55,52,50,50,48,46,94,86,80,29.79,29.72,29.61,10,10,9,7,5,,0.10,8,Rain,341